User: anonymous   Login
Location: Unspecified
(0.0000°N, 0.0000°E)
Time: 19:58:48
(UTC+00:00)
Language:

Metsat - Orbit

View from above orbital plane
View from above orbital plane
View from above satellite
View from above satellite

Ground track
Ground track

The orbit data is extracted from the following two-line orbital elements,

1 26382U 00032A   17143.90184800 +.00000024 +00000-0 +00000-0 0  9998
2 26382 009.9076 040.5265 0005172 237.5798 299.0674 01.00098843061784
Epoch (UTC): 23 May 2017 21:38:39
Eccentricity: 0.0005172
inclination: 9.9076°
perigee height: 35813 km
apogee height: 35856 km
right ascension of ascending node: 40.5265°
argument of perigee: 237.5798°
revolutions per day: 1.00098843
mean anomaly at epoch: 299.0674°
orbit number at epoch: 6178

The dashed part of the orbit path shows where the satellite is in the earth's shadow,  

DLR